"2009-10-27 00:00:00",1362526,6.143,288.6,4.35,0.838,9.98,104.0638,9.68,10.95,22.9,0,110.2,13.35,10.46,250.6
"2009-10-27 00:00:30",1362527,7.914,296.1,6.045,1.26,13.22,104.064,9.68,11,22.96,0,110.2,13.35,10.46,258.1
"2009-10-27 00:01:00",1362528,7.996,299.1,5.991,1.221,13.21,104.0496,9.64,10.94,22.94,0,110.2,13.35,10.43,261.1
"2009-10-27 00:01:30",1362529,6.761,293.1,6.046,1.05,10.51,104.0451,9.63,10.85,22.92,0,110.2,13.35,10.42,255.1
"2009-10-27 00:02:00",1362530,7.384,297.7,8.06,1.403,12.3,104.0475,9.64,10.76,22.84,0,110.2,13.35,10.42,259.7
"2009-10-27 00:02:30",1362531,6.533,297.7,3.981,1.091,9.72,104.0502,9.64,10.74,22.94,0,110.2,13.35,10.43,259.7
"2009-10-27 00:03:00",1362532,6.825,295.7,9.05,1.155,11.73,104.049,9.64,10.76,22.97,0,110.2,13.36,10.43,257.7
"2009-10-27 00:03:30",1362533,7.324,297.1,8.56,1.229,12.37,104.0287,9.59,10.88,23.12,0,110.2,13.36,10.37,259.1
"2009-10-27 00:04:00",1362534,7.134,293.7,6.331,1.251,12.55,104.0269,9.58,10.88,23.14,0,110.2,13.36,10.37,255.7
"2009-10-27 00:04:30",1362535,7.764,293.5,7.687,1.233,13.24,104.0289,9.59,10.76,23.15,0,110.1,13.36,10.37,255.5
"2009-10-27 00:05:00",1362536,6.373,287.4,5.572,0.931,10.48,104.0295,9.59,10.75,23.17,0,110.1,13.36,10.38,249.4
"2009-10-27 00:05:30",1362537,6.803,297.1,4.903,1.122,11.09,104.0267,9.58,10.73,23.11,0,110.1,13.36,10.37,259.1
"2009-10-27 00:06:00",1362538,7.631,303.2,5.532,0.975,11.47,104.016,9.55,10.64,22.89,0,110.1,13.36,10.34,265.2
"2009-10-27 00:06:30",1362539,6.344,296.6,2.48,0.365,9.41,103.9996,9.51,10.64,22.97,0,110.1,13.4,10.30,258.6
"2009-10-27 00:07:00",1362540,8.21,308.3,7.271,1.418,12.59,103.9959,9.5,10.83,23.17,0,110.1,13.36,10.29,270.3
"2009-10-27 00:07:30",1362541,8.78,306.4,7.309,1.263,13.24,103.9959,9.5,10.77,23.15,0,110.1,13.36,10.29,268.4
"2009-10-27 00:08:00",1362542,7.841,303.9,7.355,1.385,12.65,103.9959,9.5,10.79,23.24,0,110.1,13.36,10.29,265.9
"2009-10-27 00:08:30",1362543,8.54,304.3,6.627,1.259,12.34,103.9959,9.5,10.57,22.97,0,110.1,13.35,10.29,266.3
"2009-10-27 00:09:00",1362544,7.355,300.3,8.58,1.281,11.25,103.9939,9.5,10.69,23.1,0,110.1,13.35,10.28,262.3
"2009-10-27 00:09:30",1362545,7.341,300.6,5.514,0.881,9.84,103.9869,9.48,10.52,23,0,110.1,13.35,10.27,262.6
"2009-10-27 00:10:00",1362546,7.208,301.9,2.395,0.484,9.66,103.9838,9.47,10.57,23.08,0,110.1,13.36,10.26,263.9
"2009-10-27 00:10:30",1362547,9.29,315.9,5.993,1.212,13.36,103.9714,9.44,10.72,23.21,0,110.1,13.36,10.23,277.9
"2009-10-27 00:11:00",1362548,9.02,313.7,6.561,1.223,13.08,103.9624,9.42,10.74,23.25,0,110.1,13.36,10.20,275.7
"2009-10-27 00:11:30",1362549,8.98,309.9,7.446,1.004,12.69,103.9621,9.42,10.65,23.19,0,110.1,13.36,10.20,271.9
"2009-10-27 00:12:00",1362550,8.45,309.2,6.008,1.118,10.97,103.9621,9.42,10.6,23.18,0,110.1,13.36,10.20,271.2
"2009-10-27 00:12:30",1362551,8.35,307.9,9.12,1.458,11.7,103.9621,9.42,10.58,23.12,0,110.1,13.37,10.20,269.9
"2009-10-27 00:13:00",1362552,8.19,305.4,10.07,1.41,11.23,103.9621,9.42,10.53,23.16,0,110.1,13.37,10.20,267.4
"2009-10-27 00:13:30",1362553,8.52,306.6,7.791,1.563,11.36,103.9621,9.42,10.63,23.31,0,110.1,13.37,10.20,268.6
"2009-10-27 00:14:00",1362554,9.37,311.2,6.572,1.296,12.96,103.9621,9.42,10.65,23.28,0,110.1,13.37,10.20,273.2
"2009-10-27 00:14:30",1362555,9.48,312.7,6.031,1.261,13.13,103.9609,9.41,10.69,23.32,0,110.1,13.37,10.20,274.7
"2009-10-27 00:15:00",1362556,8.82,311.4,6.56,1.285,12.02,103.9576,9.41,10.66,23.31,0,110.1,13.37,10.19,273.4
"2009-10-27 00:15:30",1362557,9.29,309.5,6.304,1.23,11.42,103.9536,9.4,10.46,23.08,0,110.1,13.37,10.18,271.5
"2009-10-27 00:16:00",1362558,8.45,307.8,5.389,1.136,10.33,103.9432,9.37,10.55,23.12,0,110.1,13.37,10.15,269.8
"2009-10-27 00:16:30",1362559,8.95,313.4,6.966,1.291,11.38,103.9376,9.35,10.58,23.21,0,110.1,13.37,10.14,275.4
"2009-10-27 00:17:00",1362560,9.07,315.5,6.213,1.366,12.88,103.9357,9.35,10.65,23.29,0,110.1,13.37,10.13,277.5
"2009-10-27 00:17:30",1362561,9.49,318.2,5.418,1.163,13.32,103.9346,9.35,10.67,23.31,0,110.1,13.37,10.13,280.2
"2009-10-27 00:18:00",1362562,8.65,313.2,7.419,1.36,12.36,103.942,9.37,10.58,23.21,0,110.1,13.37,10.15,275.2
"2009-10-27 00:18:30",1362563,8.09,312.5,6.667,1.276,11.73,103.9429,9.37,10.57,23.21,0,110.1,13.37,10.15,274.5
"2009-10-27 00:19:00",1362564,7.945,308.3,5.774,1.13,10.14,103.9458,9.38,10.42,23.07,0,110.1,13.37,10.16,270.3
"2009-10-27 00:19:30",1362565,8.57,310.8,6.353,1.26,11.65,103.9479,9.38,10.55,23.29,0,110.1,13.37,10.17,272.8
"2009-10-27 00:20:00",1362566,8.45,308.7,5.883,1.293,11.67,103.9523,9.39,10.5,23.33,0,110.1,13.37,10.18,270.7
"2009-10-27 00:20:30",1362567,9.23,314.5,5.644,1.041,13.5,103.9543,9.4,10.62,23.47,0,110.1,13.38,10.18,276.5
"2009-10-27 00:21:00",1362568,9.11,313.4,5.777,1.137,13.21,103.9576,9.41,10.53,23.39,0,110.1,13.38,10.19,275.4
"2009-10-27 00:21:30",1362569,8.48,309.1,6.452,1.269,11.97,103.9543,9.4,10.49,23.47,0,110.1,13.38,10.18,271.1
"2009-10-27 00:22:00",1362570,7.997,305.6,5.228,1.146,10.83,103.9521,9.39,10.58,23.64,0,110.1,13.37,10.18,267.6
"2009-10-27 00:22:30",1362571,8.57,305.6,7.505,1.132,11.44,103.9436,9.37,10.44,23.54,0,110.1,13.38,10.15,267.6
"2009-10-27 00:23:00",1362572,8.76,308,7.579,1.32,11.34,103.9369,9.35,10.6,23.59,0,110.1,13.38,10.14,270.0
"2009-10-27 00:23:30",1362573,9.51,308.8,6.284,1.237,13.17,103.9312,9.34,10.56,23.52,0,110.1,13.37,10.12,270.8
"2009-10-27 00:24:00",1362574,9.25,310,6.137,1.139,12.99,103.9298,9.33,10.6,23.59,0,110.1,13.37,10.12,272.0
"2009-10-27 00:24:30",1362575,9.79,311,4.812,0.907,13.68,103.9295,9.33,10.57,23.59,0,110.1,13.37,10.12,273.0
"2009-10-27 00:25:00",1362576,7.428,301.1,2.736,0.49,9.9,103.9295,9.33,10.49,23.48,0,110.1,13.37,10.12,263.1
"2009-10-27 00:25:30",1362577,8.71,306.6,7.074,1.244,12.63,103.9295,9.33,10.53,23.65,0,110.1,13.37,10.12,268.6
"2009-10-27 00:26:00",1362578,7.397,296.9,5.521,0.878,10.62,103.9295,9.33,10.48,23.84,0,110.1,13.37,10.12,258.9
"2009-10-27 00:26:30",1362579,8.39,303.2,7.356,1.518,11.7,103.9295,9.33,10.48,23.89,0,110.1,13.37,10.12,265.2
"2009-10-27 00:27:00",1362580,9.37,309.9,6.85,1.179,13.48,103.9295,9.33,10.55,23.86,0,110.1,13.37,10.12,271.9
"2009-10-27 00:27:30",1362581,8.61,306.6,6.387,1.292,12.02,103.9295,9.33,10.61,23.86,0,110.1,13.37,10.12,268.6
"2009-10-27 00:28:00",1362582,8.36,305.5,6.762,1.323,11.71,103.9293,9.33,10.45,23.8,0,110.1,13.37,10.12,267.5
"2009-10-27 00:28:30",1362583,7.814,302.6,4.767,1.151,10.23,103.9278,9.33,10.52,23.99,0,110.1,13.38,10.11,264.6
"2009-10-27 00:29:00",1362584,8.12,305.9,6.829,1.328,11.14,103.9239,9.32,10.37,23.89,0,110.1,13.38,10.10,267.9
"2009-10-27 00:29:30",1362585,6.846,298.7,1.26,0.078,9.71,103.9208,9.31,10.43,24.01,0,110.1,13.42,10.10,260.7
"2009-10-27 00:30:00",1362586,8.4,306.5,6.245,1.153,13.23,103.9182,9.3,10.59,24.21,0,110.1,13.39,10.09,268.5
"2009-10-27 00:30:30",1362587,8.79,304.9,5.068,1.096,13.45,103.9126,9.29,10.56,24.31,0,110.1,13.39,10.08,266.9
"2009-10-27 00:31:00",1362588,7.35,295,5.299,1.156,10.18,103.912,9.29,10.37,24.44,0,110.1,13.39,10.07,257.0
"2009-10-27 00:31:30",1362589,8.52,300.6,6.087,1.252,12.69,103.9123,9.29,10.53,24.61,0,110.1,13.39,10.07,262.6
"2009-10-27 00:32:00",1362590,7.037,293,4.473,0.958,10.22,103.9047,9.27,10.47,24.61,0,110.1,13.39,10.05,255.0
"2009-10-27 00:32:30",1362591,7.184,293.2,5.763,1.194,10.23,103.899,9.26,10.29,24.47,0,110.1,13.39,10.04,255.2
"2009-10-27 00:33:00",1362592,7.219,291.1,5.574,1.15,10.97,103.8959,9.25,10.45,24.62,0,110.1,13.39,10.03,253.1
"2009-10-27 00:33:30",1362593,8.23,293.6,5.928,1.244,13.3,103.8957,9.25,10.48,24.61,0,110.1,13.39,10.03,255.6
"2009-10-27 00:34:00",1362594,7.773,290.4,6.976,1.306,12.14,103.8957,9.25,10.45,24.6,0,110.1,13.39,10.03,252.4
"2009-10-27 00:34:30",1362595,6.645,282.9,5.482,0.8,10.21,103.8957,9.25,10.43,24.48,0,110,13.39,10.03,244.9
"2009-10-27 00:35:00",1362596,8.13,290.4,6.534,1.262,11.99,103.8957,9.25,10.36,24.37,0,110,13.39,10.03,252.4
"2009-10-27 00:35:30",1362597,7.191,284.4,5.771,1.31,11.36,103.8957,9.25,10.41,24.34,0,110.1,13.39,10.03,246.4
"2009-10-27 00:36:00",1362598,7.15,282,6.356,1.246,10.88,103.8957,9.25,10.28,24.11,0,110.1,13.39,10.03,244.0
"2009-10-27 00:36:30",1362599,7.517,283.7,6.677,1.225,12.37,103.8957,9.25,10.44,24.08,0,110,13.39,10.03,245.7
"2009-10-27 00:37:00",1362600,7.957,287.6,6.101,1.117,13.7,103.8957,9.25,10.52,24.2,0,110.1,13.39,10.03,249.6
"2009-10-27 00:37:30",1362601,6.858,282.1,6.567,1.026,11.66,103.8957,9.25,10.38,24.15,0,110.1,13.39,10.03,244.1
"2009-10-27 00:38:00",1362602,6.538,280.2,5.302,1.161,10.96,103.8957,9.25,10.44,24.05,0,110,13.39,10.03,242.2
"2009-10-27 00:38:30",1362603,6.966,280.9,6.529,1.276,11.14,103.8957,9.25,10.41,23.95,0,110,13.39,10.03,242.9
"2009-10-27 00:39:00",1362604,5.935,275.6,1.11,0.184,9.37,103.8977,9.25,10.36,23.95,0,110,13.42,10.04,237.6
"2009-10-27 00:39:30",1362605,7.195,282.4,5.909,1.324,11.3,103.8971,9.25,10.31,23.83,0,110,13.39,10.04,244.4
"2009-10-27 00:40:00",1362606,7.602,285,5.968,1.244,12.75,103.8974,9.25,10.46,23.89,0,110,13.39,10.04,247.0
"2009-10-27 00:40:30",1362607,7.229,290.7,5.797,1.29,13.26,103.8989,9.26,10.57,23.88,0,110,13.39,10.04,252.7
"2009-10-27 00:41:00",1362608,5.819,286.8,5.006,1.1,10.21,103.9021,9.26,10.42,23.75,0,110,13.39,10.05,248.8
"2009-10-27 00:41:30",1362609,6.2,288.7,6.175,1.159,10.63,103.9033,9.27,10.4,23.98,0,110,13.39,10.05,250.7
"2009-10-27 00:42:00",1362610,6.772,287.1,7.406,1.312,10.86,103.9059,9.27,10.37,23.65,0,110,13.39,10.06,249.1
"2009-10-27 00:42:30",1362611,5.919,277,2.135,0.199,9.23,103.9043,9.27,10.3,23.34,0,110,13.42,10.05,239.0
"2009-10-27 00:43:00",1362612,6.478,288.7,7.286,1.262,11.83,103.9052,9.27,10.39,24.13,0,110,13.39,10.06,250.7
"2009-10-27 00:43:30",1362613,6.559,280.2,7.797,1.331,12.52,103.9084,9.28,10.47,24.35,0,110.1,13.39,10.06,242.2
"2009-10-27 00:44:00",1362614,7.449,284.5,5.522,1.213,13.47,103.9096,9.28,10.51,24.1,0,110,13.39,10.07,246.5
"2009-10-27 00:44:30",1362615,6.779,287.5,5.655,1.29,11.03,103.9122,9.29,10.29,23.34,0,110.1,13.39,10.07,249.5
"2009-10-27 00:45:00",1362616,7.116,286.3,6.686,1.342,10.74,103.9123,9.29,10.37,23.26,0,110,13.39,10.07,248.3
"2009-10-27 00:45:30",1362617,7.195,282.1,6.551,1.234,10.97,103.9143,9.29,10.4,23.24,0,110,13.39,10.08,244.1
"2009-10-27 00:46:00",1362618,6.111,278,1.289,0.067,9.28,103.9187,9.31,10.25,23.13,0,110,13.43,10.09,240.0
"2009-10-27 00:46:30",1362619,6.826,283.8,6.471,1.133,11.78,103.9179,9.3,10.45,23.28,0,110.1,13.4,10.09,245.8
"2009-10-27 00:47:00",1362620,7.627,291.8,7.236,1.186,13.16,103.917,9.3,10.53,23.28,0,110,13.4,10.09,253.8
"2009-10-27 00:47:30",1362621,7.902,298.2,5.705,1.132,13.04,103.9128,9.29,10.48,23.65,0,110.1,13.4,10.08,260.2
"2009-10-27 00:48:00",1362622,7.935,301.8,6.647,1.258,11.66,103.9132,9.29,10.35,23.69,0,110,13.4,10.08,263.8
"2009-10-27 00:48:30",1362623,7.734,299.5,7.197,1.431,10.94,103.9107,9.29,10.36,23.52,0,110,13.4,10.07,261.5
"2009-10-27 00:49:00",1362624,7.064,296.7,6.239,1.119,10.57,103.9062,9.27,10.4,23.56,0,110,13.4,10.06,258.7
"2009-10-27 00:49:30",1362625,7.88,302.8,6.618,1.292,11.21,103.8977,9.25,10.33,23.69,0,110,13.4,10.04,264.8
"2009-10-27 00:50:00",1362626,8.04,304.5,6.606,1.235,11.7,103.8958,9.25,10.44,23.86,0,110.1,13.4,10.03,266.5
"2009-10-27 00:50:30",1362627,8.42,309.5,4.694,1.037,13.59,103.8955,9.25,10.55,24.08,0,110,13.4,10.03,271.5
"2009-10-27 00:51:00",1362628,8.62,304.7,7.308,1.285,11.62,103.8967,9.25,10.39,23.99,0,110,13.4,10.03,266.7
"2009-10-27 00:51:30",1362629,8.06,301.6,6.345,1.364,10.46,103.897,9.25,10.26,23.7,0,110,13.4,10.03,263.6
"2009-10-27 00:52:00",1362630,7.538,301.9,6.637,1.253,10.78,103.8899,9.23,10.36,23.87,0,110,13.4,10.02,263.9
"2009-10-27 00:52:30",1362631,7.145,297.4,4.239,0.954,9.34,103.88,9.21,10.2,23.71,0,110,13.4,9.99,259.4
"2009-10-27 00:53:00",1362632,7.941,298.8,6.965,1.215,11.31,103.8781,9.2,10.32,23.78,0,110,13.4,9.99,260.8
"2009-10-27 00:53:30",1362633,8.28,301,6.762,1.435,12.63,103.8651,9.17,10.49,23.92,0,110,13.4,9.95,263.0
"2009-10-27 00:54:00",1362634,8.13,303.6,5.319,1.261,12.82,103.8631,9.16,10.42,23.77,0,110,13.4,9.95,265.6
"2009-10-27 00:54:30",1362635,7.761,306,5.154,1.294,11.16,103.8631,9.16,10.31,23.68,0,110,13.4,9.95,268.0
"2009-10-27 00:55:00",1362636,7.315,304.7,5.329,1.233,10.69,103.8631,9.16,10.28,23.56,0,110,13.4,9.95,266.7
"2009-10-27 00:55:30",1362637,6.874,305.5,5.533,1.076,10.35,103.8623,9.16,10.22,23.52,0,110,13.4,9.95,267.5
"2009-10-27 00:56:00",1362638,6.521,298.6,4.555,0.899,9.86,103.8495,9.13,10.26,23.61,0,110,13.4,9.91,260.6
"2009-10-27 00:56:30",1362639,7.431,300.7,7.727,1.281,11.92,103.8317,9.08,10.2,23.57,0,110,13.4,9.87,262.7
"2009-10-27 00:57:00",1362640,7.361,302.6,6.464,1.227,12.93,103.8292,9.08,10.32,23.74,0,110,13.4,9.86,264.6
"2009-10-27 00:57:30",1362641,7.382,302,6.019,1.174,12.35,103.8292,9.08,10.35,23.78,0,110,13.39,9.86,264.0
"2009-10-27 00:58:00",1362642,6.692,298.6,6.584,1.187,10.79,103.8292,9.08,10.21,23.66,0,110,13.39,9.86,260.6
"2009-10-27 00:58:30",1362643,5.806,294.1,5.22,0.913,9.83,103.8292,9.08,10.23,23.71,0,110,13.39,9.86,256.1
"2009-10-27 00:59:00",1362644,6.053,294.5,5.326,1.069,9.55,103.8272,9.07,10.08,23.6,0,110,13.39,9.86,256.5
"2009-10-27 00:59:30",1362645,7.088,296.6,7.051,1.277,10.77,103.819,9.05,10.21,23.81,0,110,13.4,9.83,258.6
"2009-10-27 01:00:00",1362646,7.835,299.3,7.077,1.106,12.02,103.8018,9.01,10.24,23.84,0,110,13.4,9.79,261.3
"2009-10-27 01:00:30",1362647,8.03,298.7,6.712,1.295,12.39,103.7953,8.99,10.31,23.88,0,110,13.4,9.77,260.7
"2009-10-27 01:01:00",1362648,8.43,301.6,5.515,1.089,12.56,103.7953,8.99,10.27,23.88,0,110,13.4,9.77,263.6
"2009-10-27 01:01:30",1362649,7.664,298.4,4.595,1.176,9.92,103.7953,8.99,10.09,23.75,0,110,13.4,9.77,260.4
"2009-10-27 01:02:00",1362650,8.08,302.4,7.272,1.165,11.61,103.7953,8.99,10.18,24.09,0,110,13.4,9.77,264.4
"2009-10-27 01:02:30",1362651,7.624,299.2,4.946,0.858,10.13,103.7953,8.99,10.13,24.21,0,110,13.4,9.77,261.2
"2009-10-27 01:03:00",1362652,8.64,299.3,9.11,1.354,13.32,103.79,8.98,10.16,24.3,0,110,13.4,9.76,261.3
"2009-10-27 01:03:30",1362653,8.48,300.3,10.06,1.255,11.87,103.7849,8.96,10.17,24.38,0,110,13.4,9.75,262.3
"2009-10-27 01:04:00",1362654,8.84,309,6.261,1.545,12.49,103.777,8.94,10.29,24.34,0,110,13.4,9.73,271.0
"2009-10-27 01:04:30",1362655,7.728,301.5,8.16,1.541,10.35,103.7657,8.91,10.17,23.7,0,110,13.4,9.70,263.5
"2009-10-27 01:05:00",1362656,8.03,303.1,5.067,1.313,10.86,103.7617,8.9,10.08,23.84,0,110,13.4,9.69,265.1
"2009-10-27 01:05:30",1362657,7.376,299,9.33,1.6,10.17,103.7614,8.9,10.02,23.62,0,110,13.4,9.69,261.0
"2009-10-27 01:06:00",1362658,8.39,302.8,6.726,1.484,12.45,103.7614,8.9,10.21,23.63,0,110,13.4,9.69,264.8
"2009-10-27 01:06:30",1362659,8.23,301,5.758,1.353,12.26,103.7614,8.9,10.13,23.44,0,110,13.41,9.69,263.0
"2009-10-27 01:07:00",1362660,7.811,295.3,6.635,1.351,11.4,103.7614,8.9,10.13,23.65,0,110,13.41,9.69,257.3
"2009-10-27 01:07:30",1362661,8.44,304,8.98,1.376,11.78,103.7614,8.9,10.17,23.8,0,110,13.4,9.69,266.0
"2009-10-27 01:08:00",1362662,7.7,291.4,6.966,1.218,10.65,103.7614,8.9,10.07,23.56,0,110,13.4,9.69,253.4
"2009-10-27 01:08:30",1362663,8.35,297.6,6.423,1.207,10.67,103.7614,8.9,9.94,23.45,0,110,13.41,9.69,259.6
"2009-10-27 01:09:00",1362664,8.71,300.8,7.591,1.253,11.58,103.7614,8.9,10.16,23.67,0,110,13.41,9.69,262.8
"2009-10-27 01:09:30",1362665,8.2,298.2,8.32,1.523,12.46,103.7614,8.9,10.17,23.7,0,110,13.41,9.69,260.2
"2009-10-27 01:10:00",1362666,7.916,295.7,5.514,1.145,11.59,103.7614,8.9,10.04,23.65,0,110,13.41,9.69,257.7
"2009-10-27 01:10:30",1362667,9.22,300.7,7.741,1.472,11.23,103.76,8.9,10.11,23.68,0,110,13.41,9.68,262.7
"2009-10-27 01:11:00",1362668,9.09,298.5,7.24,1.505,11.3,103.7586,8.9,10.01,23.53,0,110,13.41,9.68,260.5
"2009-10-27 01:11:30",1362669,7.363,291,4.794,0.757,8.82,103.7501,8.88,9.89,23.47,0,110,13.41,9.66,253.0
"2009-10-27 01:12:00",1362670,9.29,297.7,7.653,1.643,11.89,103.7439,8.86,10.16,23.55,0,110,13.41,9.64,259.7
"2009-10-27 01:12:30",1362671,9.07,298.6,7.874,1.374,12.83,103.7363,8.84,10.08,23.64,0,110,13.4,9.62,260.6
"2009-10-27 01:13:00",1362672,8.76,295.9,12.44,2.097,11.36,103.7298,8.82,9.97,23.56,0,110,13.4,9.61,257.9
"2009-10-27 01:13:30",1362673,9.52,302.3,5.837,1.332,11.67,103.7275,8.82,10.05,23.64,0,110,13.4,9.60,264.3
"2009-10-27 01:14:00",1362674,8.33,297.6,8.75,1.284,11.7,103.7284,8.82,10.14,23.76,0,110,13.4,9.60,259.6
"2009-10-27 01:14:30",1362675,7.439,290.2,4.988,1.237,10.15,103.7275,8.82,10,23.66,0,110,13.4,9.60,252.2
"2009-10-27 01:15:00",1362676,8.78,298.3,6.039,1.223,12.25,103.7278,8.82,10.01,23.68,0,110,13.4,9.60,260.3
"2009-10-27 01:15:30",1362677,9.12,297.8,6.294,1.214,12.73,103.7275,8.82,10.03,23.7,0,110.1,13.4,9.60,259.8
"2009-10-27 01:16:00",1362678,8.53,292.4,6.8,1.195,11.56,103.7275,8.82,10,23.79,0,110,13.4,9.60,254.4
"2009-10-27 01:16:30",1362679,8.54,293.4,8.27,1.44,11.33,103.7275,8.82,10.03,23.84,0,110,13.4,9.60,255.4
"2009-10-27 01:17:00",1362680,8.89,295.5,4.903,1.189,11.75,103.7275,8.82,10.07,23.88,0,110,13.4,9.60,257.5
"2009-10-27 01:17:30",1362681,8.01,291.8,6.061,0.98,9.92,103.7278,8.82,9.89,23.8,0,110,13.4,9.60,253.8
"2009-10-27 01:18:00",1362682,8.3,294.1,5.338,1.03,10.9,103.7287,8.82,10.05,23.92,0,110,13.41,9.60,256.1
"2009-10-27 01:18:30",1362683,8.51,293.6,6.764,1.208,12.74,103.729,8.82,10.07,23.98,0,110,13.41,9.60,255.6
"2009-10-27 01:19:00",1362684,8.11,295,5.513,1.181,11.55,103.7296,8.82,9.99,23.87,0,110,13.41,9.61,257.0
"2009-10-27 01:19:30",1362685,8.13,295.3,7.826,1.586,10.9,103.7299,8.82,9.99,23.84,0,110,13.41,9.61,257.3
"2009-10-27 01:20:00",1362686,9.6,299,6.436,1.33,12.17,103.7296,8.82,10.03,23.93,0,110,13.41,9.61,261.0
"2009-10-27 01:20:30",1362687,9.02,291.7,5.899,1.01,10.44,103.7302,8.82,9.95,23.75,0,110,13.41,9.61,253.7
"2009-10-27 01:21:00",1362688,9.82,294.2,7.297,1.188,11.3,103.7305,8.82,10,23.72,0,110,13.41,9.61,256.2
"2009-10-27 01:21:30",1362689,10.81,298.4,6.504,1.206,12.93,103.729,8.82,10.03,23.65,0,110,13.41,9.60,260.4
"2009-10-27 01:22:00",1362690,9.42,293.6,4.682,1.215,11.57,103.7327,8.83,10.03,23.54,0,110,13.41,9.61,255.6
"2009-10-27 01:22:30",1362691,9.51,297.3,6.961,1.2,10.51,103.7426,8.86,9.95,23.34,0,110,13.41,9.64,259.3
"2009-10-27 01:23:00",1362692,10.34,303.3,7.476,1.436,12.11,103.7587,8.9,10.01,23.41,0,110,13.41,9.68,265.3
"2009-10-27 01:23:30",1362693,9.93,301.4,7.729,1.203,11.01,103.7638,8.91,9.97,23.27,0,110,13.41,9.69,263.4
"2009-10-27 01:24:00",1362694,10.67,299.8,6.444,1.266,11.74,103.7641,8.91,10.07,23.35,0,110,13.41,9.69,261.8
"2009-10-27 01:24:30",1362695,11.02,299.5,7.072,1.142,12.96,103.7644,8.91,10.12,23.4,0,110,13.41,9.69,261.5
"2009-10-27 01:25:00",1362696,10.48,296.6,7.503,1.389,11.88,103.7673,8.92,10.07,23.31,0,110,13.41,9.70,258.6
"2009-10-27 01:25:30",1362697,9.28,291.2,5.515,1.065,10.6,103.7667,8.92,10.05,23.23,0,110,13.41,9.70,253.2
"2009-10-27 01:26:00",1362698,9.7,297.1,6.828,1.437,11.44,103.7658,8.92,10.12,23.3,0,110,13.41,9.70,259.1
"2009-10-27 01:26:30",1362699,8.9,294,6.59,1.109,11.04,103.7676,8.92,9.96,23.08,0,110,13.41,9.70,256.0
"2009-10-27 01:27:00",1362700,9.57,291.8,4.823,1.301,11.18,103.7724,8.93,10.02,23.09,0,110,13.41,9.72,253.8
"2009-10-27 01:27:30",1362701,10.24,293.7,6.855,0.977,13.05,103.7853,8.96,10.17,23.28,0,110,13.41,9.75,255.7
"2009-10-27 01:28:00",1362702,9.43,294,7.705,1.461,12.03,103.7958,8.99,10.12,23.04,0,110,13.41,9.78,256.0
"2009-10-27 01:28:30",1362703,7.978,290.9,6.26,0.922,9.96,103.7986,9,9.96,22.85,0,110,13.41,9.78,252.9
"2009-10-27 01:29:00",1362704,9.57,296.6,6.867,1.322,11.64,103.8003,9,10.18,23,0,110,13.4,9.79,258.6
"2009-10-27 01:29:30",1362705,9.11,298,7.698,1.46,11.31,103.7997,9,10.12,22.82,0,110,13.41,9.79,260.0
"2009-10-27 01:30:00",1362706,8.89,298.3,6.595,1.244,11.02,103.8003,9,10.09,22.83,0,110,13.4,9.79,260.3
"2009-10-27 01:30:30",1362707,8.25,304.7,6.906,1.151,13.18,103.8003,9,10.17,23.43,0,110.1,13.4,9.79,266.7
"2009-10-27 01:31:00",1362708,8.77,303.2,8.48,1.364,12.53,103.8012,9.01,10.15,23.73,0,110,13.4,9.79,265.2
"2009-10-27 01:31:30",1362709,7.618,292.1,3.532,0.706,9.28,103.8026,9.01,9.97,23.11,0,110,13.41,9.79,254.1
"2009-10-27 01:32:00",1362710,8.1,305.4,8.82,1.158,12.39,103.8038,9.01,10.18,23.46,0,110,13.4,9.80,267.4
"2009-10-27 01:32:30",1362711,8.01,301.2,6.865,1.096,10.67,103.8029,9.01,10.21,23.29,0,110,13.41,9.79,263.2
"2009-10-27 01:33:00",1362712,8.82,307.1,5.236,1.223,12.21,103.8047,9.01,10.16,22.91,0,110,13.4,9.80,269.1
"2009-10-27 01:33:30",1362713,8.27,307.5,5.978,1.17,13.17,103.8047,9.01,10.19,23.57,0,110.1,13.41,9.80,269.5
"2009-10-27 01:34:00",1362714,7.06,306.1,6.778,1.341,12.31,103.8053,9.02,10.23,24.44,0,110,13.41,9.80,268.1
"2009-10-27 01:34:30",1362715,6.397,304,5.826,1.082,10.49,103.8038,9.01,10.07,24.41,0,110,13.41,9.80,266.0
"2009-10-27 01:35:00",1362716,7.056,307,5.82,1.526,11.29,103.8058,9.02,10.15,24.35,0,110,13.41,9.80,269.0
"2009-10-27 01:35:30",1362717,6.141,300.7,3.283,0.446,9.33,103.8149,9.04,10.06,23.88,0,110,13.41,9.82,262.7
"2009-10-27 01:36:00",1362718,7.277,306.2,5.456,1.554,11.77,103.8267,9.07,10.2,23.99,0,110,13.41,9.85,268.2
"2009-10-27 01:36:30",1362719,6.938,309.4,10.2,1.189,12.68,103.8349,9.09,10.27,23.99,0,110,13.41,9.88,271.4
"2009-10-27 01:37:00",1362720,7.013,313.3,5.836,1.12,13.46,103.838,9.1,10.27,24.41,0,110,13.41,9.88,275.3
"2009-10-27 01:37:30",1362721,6.208,311.7,7.135,1.261,11.74,103.8406,9.11,10.19,24.52,0,110,13.41,9.89,273.7
"2009-10-27 01:38:00",1362722,5.782,309.6,6.507,1.19,10,103.8392,9.1,10.06,24.73,0,110,13.41,9.89,271.6
"2009-10-27 01:38:30",1362723,6.064,313.1,8.45,1.159,11.44,103.8421,9.11,10.22,24.79,0,110,13.41,9.89,275.1
"2009-10-27 01:39:00",1362724,5.323,311.8,5.456,0.884,9.94,103.8398,9.1,10.07,24.91,0,110,13.42,9.89,273.8
"2009-10-27 01:39:30",1362725,5.248,314.9,3.715,0.903,10.75,103.8421,9.11,10.26,25.23,0,110,13.42,9.89,276.9
"2009-10-27 01:40:00",1362726,7.242,320.4,4.889,0.894,14.08,103.8418,9.11,10.34,25.2,0,110,13.42,9.89,282.4
"2009-10-27 01:40:30",1362727,6.864,322.3,6.203,1.071,13.57,103.8409,9.11,10.33,25.35,0,110,13.42,9.89,284.3
"2009-10-27 01:41:00",1362728,5.281,313.2,3.028,0.654,9.91,103.8472,9.12,10.24,25.34,0,110,13.42,9.91,275.2
"2009-10-27 01:41:30",1362729,6.154,316.8,6.454,1.262,11.1,103.8583,9.15,10.28,25.24,0,110,13.41,9.94,278.8
"2009-10-27 01:42:00",1362730,5.447,311,6.715,0.893,10.38,103.8681,9.18,10.29,25.08,0,110,13.42,9.96,273.0
"2009-10-27 01:42:30",1362731,5.103,312.1,1.707,0.243,9.6,103.8738,9.19,10.24,25.09,0,110,13.45,9.98,274.1
"2009-10-27 01:43:00",1362732,6.664,318.8,7.259,1.314,12.09,103.8801,9.21,10.22,25.24,0,110,13.42,9.99,280.8
"2009-10-27 01:43:30",1362733,7.216,323.2,6.779,1.346,13.33,103.8775,9.2,10.41,25.47,0,110,13.42,9.98,285.2
"2009-10-27 01:44:00",1362734,7.033,322.3,6.82,1.233,13.88,103.8792,9.21,10.41,25.46,0,110,13.42,9.99,284.3
"2009-10-27 01:44:30",1362735,5.46,316.7,7.488,1.338,10.67,103.8786,9.2,10.21,25.16,0,110,13.42,9.99,278.7
"2009-10-27 01:45:00",1362736,5.947,318.1,6.706,1.272,11.21,103.8801,9.21,10.31,25.2,0,110,13.41,9.99,280.1
"2009-10-27 01:45:30",1362737,4.761,311,1.726,0.125,9.06,103.8795,9.21,10.2,25.03,0,110,13.45,9.99,273.0
"2009-10-27 01:46:00",1362738,4.91,313.8,1.669,0.16,9.42,103.8804,9.21,10.28,25.09,0,110,13.45,9.99,275.8
"2009-10-27 01:46:30",1362739,6.341,321.4,6.302,1.322,12.07,103.8798,9.21,10.27,25.14,0,110,13.41,9.99,283.4
"2009-10-27 01:47:00",1362740,6.682,323.6,7.214,1.311,12.87,103.8807,9.21,10.42,25.4,0,110,13.41,9.99,285.6
"2009-10-27 01:47:30",1362741,7.132,328.7,6.141,1.079,13.7,103.8819,9.21,10.38,25.39,0,110,13.41,10.00,290.7
"2009-10-27 01:48:00",1362742,6.379,329.8,6.712,1.257,12.69,103.8801,9.21,10.44,25.45,0,110,13.41,9.99,291.8
"2009-10-27 01:48:30",1362743,5.255,324.3,3.775,0.817,9.88,103.8822,9.21,10.31,25.3,0,110,13.41,10.00,286.3
"2009-10-27 01:49:00",1362744,4.772,320.9,1.699,0.127,9.06,103.883,9.21,10.2,25.18,0,110,13.45,10.00,282.9
"2009-10-27 01:49:30",1362745,6.19,324,7.821,1.284,11.5,103.8827,9.21,10.3,25.28,0,110,13.41,10.00,286.0
"2009-10-27 01:50:00",1362746,5.118,319.7,3.249,0.674,10.29,103.8825,9.21,10.31,25.3,0,110,13.41,10.00,281.7